Location: Larkspur
(54.4391°N, 113.7691°W)
Time: 02:59:20
(UTC+00:00)

YUBILEINY - Pass Details

Date: 02 December 2023
Orbit: 1479 x 1508 km, 82.5° (Epoch: 03 March)

Event Time Altitude Azimuth Distance (km) Brightness Sun altitude
Rises 23:46:18 0° 329° (NNW) 4,644 ? -4.6°
Reaches altitude 10° 23:53:43 10° 10° (N) 3,652 ? -5.6°
Maximum altitude 23:54:44 10° 17° (NNE) 3,634 ? -5.7°
Drops below altitude 10° 23:55:45 10° 24° (NNE) 3,649 ? -5.8°
Enters shadow 23:59:38 - 48° (NE) 3,998 ? -6.3°
